Regional Weather Roundup
Issued by NWS Northern Indiana

Home | Current Version | Previous Version | Graphics & Text | Print | Product List | Glossary On
Versions: 1 2 3 4 5 6 7 8 9 10 11 12 13 14 15 16 17 18 19 20 21 22 23 24 25 26 27 28 29 30 31 32 33 34 35 36 37 38 39 40 41 42 43 44 45 46 47 48 49 50
000
ASUS43 KIWX 200300
RWRIWX

KIWX WEATHER ROUNDUP
NATIONAL WEATHER SERVICE NORTHERN INDIANA
1000 PM EST FRI DEC 19 2014

NOTE: "FAIR" INDICATES FEW OR NO CLOUDS BELOW 12,000 FEET WITH NO
SIGNIFICANT WEATHER AND/OR OBSTRUCTIONS TO VISIBILITY.

* THESE STATIONS ARE NOT UNDER NWS QUALITY CONTROL. THEY ALSO MAY NOT
  REPORT WEATHER SUCH AS PRECIPITATION OR FOG.

INZ001>027-200400-
NORTHERN INDIANA

CITY           SKY/WX    TMP DP  RH WIND       PRES   REMARKS
GARY*          CLOUDY    34  21  60 CALM      30.29S
KNOX*          CLOUDY    30  24  77 W3        30.27F
SOUTH BEND     CLOUDY    32  24  72 CALM      30.28R
GOSHEN         CLOUDY    29  22  75 SE5       30.27R WCI  24
MONTICELLO*    CLOUDY    29  28  95 CALM      30.27F
WARSAW*        CLOUDY    30  28  93 CALM      30.26F
ANGOLA*        CLEAR     19  18  93 CALM      30.26R
FORT WAYNE     CLOUDY    29  24  82 E3        30.28F
PERU/GRISSOM   CLOUDY    29  29 100 CALM      30.26F

$$
INZ028>050-200400-
CENTRAL INDIANA

CITY           SKY/WX    TMP DP  RH WIND       PRES   REMARKS
LAFAYETTE      CLOUDY    28  26  92 CALM      30.28F
KOKOMO*        CLOUDY    28  27  93 CALM      30.26F
MUNCIE*        CLOUDY    29  25  85 MISG      30.26F
INDIANAPOLIS   CLOUDY    29  24  82 NE3       30.25F

$$
MIZ043>046-050>051-056>058-064>065-071>073-077>080-200400-
SOUTHWEST LOWER MICHIGAN

CITY           SKY/WX    TMP DP  RH WIND       PRES   REMARKS
BATTLE CREEK   CLEAR     21  17  84 CALM      30.25F
BENTON HARBOR  CLOUDY    29  22  75 CALM      30.27S
COLDWATER*     PTCLDY    20  19  96 CALM      30.26R FOG
HILLSDALE*     CLEAR     26  22  87 CALM      30.24S
HOLLAND        PTCLDY    23  19  85 CALM      30.27F
GRAND RAPIDS   PTCLDY    22  18  85 SE3       30.26F
KALAMAZOO      CLEAR     24  19  81 CALM      30.26R
STURGIS*       PTCLDY    21  21 100 CALM      30.26R
THREE RIVERS*  FAIR      23  19  85 S3        30.27R

$$
OHZ001>008-015>018-024>025-200400-
NORTHWEST OHIO

CITY           SKY/WX    TMP DP  RH WIND       PRES   REMARKS
DEFIANCE       CLOUDY    25  21  85 CALM      30.29S
FINDLAY        CLOUDY    30  23  75 CALM      30.27S
TOLEDO EXPRESS CLOUDY    30  22  72 CALM      30.28S
TOLEDO METCALF CLOUDY    30  24  78 SE3       30.30R
LIMA           MOCLDY    29  21  72 CALM      30.26F

$$
AND FOR LAKE MICHIGAN COASTAL AND OPEN LAKE BUOY OBSERVATIONS

STATION/POSITION TEMP    WIND        PRES    VSBY  WAVE
                 AIR SEA DIR/SP/G                  HT/PER
                 (F)     (DEG/KT/KT) (MB)    (MI)  (FT/S)
CALUMET HARBOR    32     180/  3/  3 1024.1R
SAINT JOSEPH      31      90/  1/  3 1025.7S
MICHIGAN CITY CG     39                N/A    1 1/4  1

$$
&&


USA.gov is the U.S. government's official web portal to all federal, state and local government web resources and services.